Back to catalog

STARLINK-11526

AliveCommunicationsVLEO
NORAD 63007·PAYLOAD·🇺🇸 United States

Launched Feb 15, 2025 from Cape Canaveral Space Force Station

Loading…

Next Passes (next 24 hours)

TLE

FreshSource: CelesTrak SupGP

Epoch: Sep 14, 2026, 13:53 UTC

1 63007C 25032C   26257.57895833 -.00150290  00000+0 -11696-2 0  2578
2 63007  43.0002 136.3373 0001926 257.2309 191.8234 15.70865359    17

Track STARLINK-11526 in real time with AllMySat

Download on the App Store